Change the Weather History Date:

Tuesday, November 13, 2012

  Actual Average Record
Temperature  
Mean Temperature 37 °F -  
Max Temperature 55 °F 46 °F 78 °F (1999)
Min Temperature 19 °F 26 °F -3 °F (1986)
Degree Days  
Heating Degree Days 28    
Moisture  
Dew Point 25 °F    
Average Humidity 66    
Maximum Humidity 85    
Minimum Humidity 31    
Precipitation  
Precipitation 0.00 in - - ()
Sea Level Pressure  
Sea Level Pressure 30.32 in    
Wind  
Wind Speed 7 mph (SSE)    
Max Wind Speed 13 mph    
Max Gust Speed -    
Visibility 9 miles    
Events      
Averages and records for this station are not official NWS values.
T = Trace of Precipitation, MM = Missing Value Source: NWS Daily Summary

Daily Weather History Graph

Daily Weather History Graph

Search for Another Location

Airport or City:

Trip Planner

Search our weather history database for the weather conditions in past years. The results will help you decide how hot, cold, wet, or windy it might be!

Date:

Astronomy

Nov. 13, 2012 Rise Set
Actual Time 7:12 AM CST 5:05 PM CST
Civil Twilight 6:42 AM CST 5:35 PM CST
Nautical Twilight 6:08 AM CST 6:08 PM CST
Astronomical Twilight 5:36 AM CST 6:41 PM CST
Moon 6:51 AM CST (11/13) 4:59 PM CST (11/13)
Length of Visible Light 10h 52m
Length of Day
9h 53m
Waning Crescent, 0% of the Moon is Illuminated
Nov 13
Waning Crescent
Nov 13
New
Nov 20
First Quarter
Nov 28
Full
Dec 6
Last Quarter

Hourly Weather History & Observations

Time (CST) Temp. Windchill Dew Point Humidity Pressure Visibility Wind Dir Wind Speed Gust Speed Precip Events Conditions
12:54 AM 21.9 °F 15.7 °F 17.1 °F 82% 30.40 in 9.0 mi SE 4.6 mph - N/A   Clear
1:54 AM 21.0 °F 12.4 °F 17.1 °F 85% 30.39 in 9.0 mi SSE 6.9 mph - N/A   Clear
2:54 AM 21.0 °F 13.4 °F 17.1 °F 85% 30.40 in 9.0 mi South 5.8 mph - N/A   Clear
3:54 AM 19.9 °F 13.4 °F 16.0 °F 85% 30.38 in 8.0 mi SSE 4.6 mph - N/A   Clear
4:54 AM 19.9 °F 14.9 °F 16.0 °F 85% 30.38 in 8.0 mi SE 3.5 mph - N/A   Clear
6:54 AM 19.9 °F 12.1 °F 16.0 °F 85% 30.38 in 8.0 mi SSE 5.8 mph - N/A   Clear
7:54 AM 21.9 °F 13.4 °F 18.0 °F 85% 30.38 in 7.0 mi SE 6.9 mph - N/A   Clear
8:54 AM 28.9 °F 23.9 °F 24.1 °F 82% 30.38 in 8.0 mi South 4.6 mph - N/A   Clear
10:54 AM 41.0 °F 35.2 °F 26.1 °F 55% 30.36 in 10.0 mi SSE 9.2 mph - N/A   Clear
11:54 AM 46.9 °F - 26.1 °F 44% 30.32 in 10.0 mi South 10.4 mph - N/A   Clear
12:54 PM 52.0 °F - 26.1 °F 37% 30.29 in 10.0 mi South 12.7 mph - N/A   Clear
1:54 PM 55.0 °F - 25.0 °F 31% 30.27 in 10.0 mi South 12.7 mph - N/A   Scattered Clouds
2:54 PM 55.0 °F - 27.0 °F 34% 30.25 in 10.0 mi South 11.5 mph - N/A   Overcast
3:54 PM 51.1 °F - 30.0 °F 44% 30.25 in 10.0 mi SSE 11.5 mph - N/A   Overcast
4:54 PM 46.9 °F - 30.9 °F 54% 30.24 in 10.0 mi SE 12.7 mph - N/A   Overcast
5:54 PM 45.0 °F 39.7 °F 32.0 °F 60% 30.25 in 10.0 mi SSE 10.4 mph - N/A   Partly Cloudy
6:54 PM 41.0 °F 37.1 °F 32.0 °F 70% 30.27 in 9.0 mi South 5.8 mph - N/A   Clear
7:54 PM 41.0 °F 35.2 °F 33.1 °F 73% 30.27 in 8.0 mi SSE 9.2 mph - N/A   Mostly Cloudy
8:54 PM 43.0 °F 40.3 °F 30.9 °F 62% 30.27 in 10.0 mi SSE 4.6 mph - N/A   Partly Cloudy
9:54 PM 43.0 °F 37.2 °F 30.9 °F 62% 30.28 in 10.0 mi SSW 10.4 mph - N/A   Mostly Cloudy
10:54 PM 41.0 °F 37.1 °F 32.0 °F 70% 30.29 in 10.0 mi South 5.8 mph - N/A   Partly Cloudy
11:54 PM 39.0 °F 36.8 °F 30.9 °F 73% 30.30 in 10.0 mi South 3.5 mph - N/A   Clear